Location: Krakow
(50.0830°N, 19.9170°E)
Time: 05:51:30
(UTC+01:00)

SR - Pass Details

Date: 15 February 2023
Orbit: 582 x 867 km, 66.7° (Epoch: 20 March)

Event Time Altitude Azimuth Distance (km) Brightness Sun altitude
Rises 19:14:49 0° 324° (NW) 2,856 ? -22.5°
Reaches altitude 10° 19:17:06 10° 327° (NNW) 1,930 ? -22.8°
Enters shadow 19:20:56 62° 10° (N) 664 ? -23.4°
Maximum altitude 19:21:23 68° 50° (NE) 633 - -23.5°
Drops below altitude 10° 19:25:37 10° 135° (SE) 1,906 - -24.2°
Sets 19:27:52 0° 138° (SE) 2,816 - -24.5°
